Weather History for Alliance, NE

Change the Weather History Date:

Tuesday, October 16, 2012

  Actual Average Record
Temperature  
Mean Temperature 55 °F 46 °F  
Max Temperature 76 °F 62 °F 85 °F (1932)
Min Temperature 34 °F 29 °F 16 °F (2001)
Degree Days  
Heating Degree Days 10 19  
Month to date heating degree days 303 261  
Since 1 July heating degree days 466 506  
Cooling Degree Days 0 0  
Month to date cooling degree days 0 0  
Year to date cooling degree days 959 563  
Growing Degree Days 5 (Base 50)    
Moisture  
Dew Point 38 °F    
Average Humidity 57    
Maximum Humidity 92    
Minimum Humidity 21    
Precipitation  
Precipitation T in 0.04 in 0.70 in (1915)
Month to date precipitation 0.57 0.70  
Year to date precipitation 6.38 14.50  
Sea Level Pressure  
Sea Level Pressure 29.57 in    
Wind  
Wind Speed 15 mph (West)    
Max Wind Speed 48 mph    
Max Gust Speed 60 mph    
Visibility 9 miles    
Events Rain    
T = Trace of Precipitation, MM = Missing Value Source: NWS Daily Summary

Daily Weather History Graph

Daily Weather History Graph

Search for Another Location

Airport:

Trip Planner

Search our weather history database for the weather conditions in past years. The results will help you decide how hot, cold, wet, or windy it might be!

Date:

Astronomy

Oct. 16, 2012 Rise Set
Actual Time 7:05 AM MDT 6:07 PM MDT
Civil Twilight 6:37 AM MDT 6:35 PM MDT
Nautical Twilight 6:04 AM MDT 7:07 PM MDT
Astronomical Twilight 5:32 AM MDT 7:39 PM MDT
Moon 8:33 AM MDT (10/16) 6:50 PM MDT (10/16)
Length of Visible Light 11h 58m
Length of Day
11h 01m
New Moon, 2% of the Moon is Illuminated
Oct 16
New Moon
Oct 21
First Quarter
Oct 29
Full
Nov 6
Last Quarter
Nov 13
New

Hourly Weather History & Observations

Time (MDT) Temp. Windchill Dew Point Humidity Pressure Visibility Wind Dir Wind Speed Gust Speed Precip Events Conditions
12:53 AM 52.0 °F - 35.1 °F 53% 29.73 in 10.0 mi NW 9.2 mph - N/A   Clear
1:53 AM 52.0 °F - 37.0 °F 57% 29.73 in 10.0 mi NW 10.4 mph - N/A   Clear
2:53 AM 41.0 °F 36.4 °F 34.0 °F 76% 29.75 in 10.0 mi WNW 6.9 mph - N/A   Clear
3:53 AM 37.4 °F 31.4 °F 33.8 °F 87% 29.83 in 10.0 mi West 8.1 mph - N/A   Clear
4:53 AM 37.0 °F 31.6 °F 34.0 °F 89% 29.76 in 10.0 mi West 6.9 mph - N/A   Partly Cloudy
5:53 AM 37.4 °F 32.1 °F 33.8 °F 87% 29.82 in 10.0 mi West 6.9 mph - N/A   Clear
6:53 AM 35.1 °F 30.1 °F 33.1 °F 92% 29.79 in 10.0 mi West 5.8 mph - N/A   Clear
7:53 AM 39.9 °F 37.8 °F 37.0 °F 89% 29.77 in 10.0 mi SW 3.5 mph - N/A   Clear
8:53 AM 50.0 °F - 39.9 °F 68% 29.73 in 10.0 mi South 3.5 mph - N/A   Clear
9:53 AM 63.0 °F - 36.0 °F 37% 29.65 in 10.0 mi West 16.1 mph - N/A   Clear
10:53 AM 66.0 °F - 35.1 °F 32% 29.61 in 10.0 mi West 17.3 mph 23.0 mph N/A   Clear
11:53 AM 69.1 °F - 35.1 °F 29% 29.57 in 10.0 mi West 17.3 mph 23.0 mph N/A   Clear
12:53 PM 72.0 °F - 35.1 °F 26% 29.50 in 10.0 mi West 16.1 mph - N/A   Clear
1:53 PM 75.0 °F - 34.0 °F 22% 29.42 in 10.0 mi West 19.6 mph 29.9 mph N/A   Clear
2:53 PM 73.0 °F - 32.0 °F 22% 29.43 in 10.0 mi West 28.8 mph 34.5 mph N/A   Overcast
3:53 PM 71.1 °F - 37.0 °F 29% 29.42 in 10.0 mi WSW 17.3 mph - 0.00 in   Mostly Cloudy
4:53 PM 71.1 °F - 35.1 °F 27% 29.38 in 10.0 mi SW 19.6 mph 27.6 mph N/A   Partly Cloudy
5:53 PM 69.1 °F - 37.0 °F 31% 29.36 in 10.0 mi SW 15.0 mph - N/A   Partly Cloudy
6:53 PM 70.0 °F - 37.0 °F 30% 29.38 in 10.0 mi West 20.7 mph 29.9 mph N/A   Overcast
7:19 PM 68.0 °F - 39.2 °F 35% 29.45 in 2.0 mi West 43.7 mph 56.4 mph N/A   Haze
7:31 PM 62.6 °F - 44.6 °F 52% 29.49 in 3.0 mi West 40.3 mph 59.8 mph 0.00 in Rain Light Rain
7:39 PM 57.2 °F - 46.4 °F 67% 29.51 in 6.0 mi West 31.1 mph 49.5 mph 0.00 in Rain Rain
7:53 PM 57.0 °F - 48.9 °F 74% 29.45 in 10.0 mi West 17.3 mph 27.6 mph N/A Rain Light Rain
8:53 PM 57.0 °F - 48.9 °F 74% 29.43 in 10.0 mi West 19.6 mph - N/A   Mostly Cloudy
9:53 PM 51.1 °F - 41.0 °F 68% 29.48 in 10.0 mi NW 27.6 mph 39.1 mph N/A   Partly Cloudy
10:53 PM 48.9 °F - 39.9 °F 71% 29.51 in 10.0 mi NNW 18.4 mph 24.2 mph N/A   Scattered Clouds
11:53 PM 48.0 °F - 41.0 °F 77% 29.53 in 10.0 mi NW 21.9 mph 26.5 mph N/A   Overcast